This is the latest recevied weather packets stored in our database for station/object AD8BW. If no packets are shown the sender has not sent any weather packets the latest 10 day(s).
| Time | Temp. | Humidity | Pressure | Rain* | Wind** | Luminosity | Snow |
|---|---|---|---|---|---|---|---|
| 1777944229 | 16.11° C | 78% | 998.8 hPa | 0 mm | - | 0 W/m² | - |
| 1777943629 | 16.67° C | 77% | 998.6 hPa | 0 mm | - | 0 W/m² | - |
| 1777943030 | 16.67° C | 75% | 998.6 hPa | 0 mm | - | 0 W/m² | - |
| 1777942434 | 17.22° C | 73% | 998.6 hPa | 0 mm | - | 0 W/m² | - |
| 1777941834 | 18.33° C | 68% | 998.6 hPa | 0 mm | - | 0 W/m² | - |
| 1777941229 | 18.89° C | 63% | 998.3 hPa | 0 mm | - | 7 W/m² | - |
| 1777940628 | 20° C | 59% | 998.3 hPa | 0 mm | - | 9 W/m² | - |
| 1777940029 | 21.11° C | 55% | 998.4 hPa | 0 mm | - | 14 W/m² | - |
| 1777939430 | 21.67° C | 53% | 997.9 hPa | 0 mm | - | 23 W/m² | - |
| 1777938828 | 22.22° C | 51% | 997.9 hPa | 0 mm | - | 23 W/m² | - |
| 1777938231 | 22.78° C | 47% | 997.9 hPa | 0 mm | - | 25 W/m² | - |
| 1777937631 | 22.78° C | 46% | 998 hPa | 0 mm | - | 25 W/m² | - |
| 1777937033 | 22.78° C | 46% | 998.1 hPa | 0 mm | - | 32 W/m² | - |
| 1777936425 | 22.78° C | 46% | 998 hPa | 0 mm | - | 44 W/m² | - |
| 1777935826 | 22.78° C | 44% | 998 hPa | 0 mm | - | 53 W/m² | - |
| 1777935222 | 23.33° C | 44% | 998 hPa | 0 mm | - | 47 W/m² | - |
| 1777934623 | 23.33° C | 42% | 998.1 hPa | 0 mm | - | 39 W/m² | - |
| 1777934028 | 23.33° C | 41% | 998.4 hPa | 0 mm | - | 76 W/m² | - |
| 1777933427 | 23.33° C | 41% | 998.5 hPa | 0 mm | - | 54 W/m² | - |
| 1777932825 | 23.33° C | 39% | 998.6 hPa | 0 mm | - | 67 W/m² | - |
| 1777932223 | 23.33° C | 40% | 999 hPa | 0 mm | - | 49 W/m² | - |
| 1777931635 | 23.33° C | 39% | 998.8 hPa | 0 mm | - | 188 W/m² | - |
| 1777931030 | 23.33° C | 38% | 998.7 hPa | 0 mm | - | 455 W/m² | - |
| 1777930430 | 23.33° C | 38% | 998.8 hPa | 0 mm | - | 483 W/m² | - |
| 1777929830 | 23.33° C | 37% | 999 hPa | 0 mm | - | 93 W/m² | - |
* Rain latest hour (hover to see other rain measurements)
** Current wind speed in m/s (hover to see current wind gust speed)